Kingsville NAS, TX

9:15 PM CDT on June 22, 2017 (GMT -0500)
Kingsville Naval Air Station

Weather History for KNQI - October, 2014

Change the Weather History Date:

Thursday, October 2, 2014

  Actual Average Record
Temperature  
Mean Temperature 86 °F -  
Max Temperature 93 °F 84 °F 93 °F (2000)
Min Temperature 80 °F 66 °F 57 °F (2001)
Cooling Degree Days 22    
Growing Degree Days 36 (Base 50)    
Moisture  
Dew Point 80 °F    
Average Humidity 90    
Maximum Humidity 100    
Minimum Humidity 66    
Precipitation  
Precipitation 0.00 in - - ()
Sea Level Pressure  
Sea Level Pressure 29.83 in    
Wind  
Wind Speed 10 mph (SSE)    
Max Wind Speed 18 mph    
Max Gust Speed 26 mph    
Visibility 9 miles    
Events      
Averages and records for this station are not official NWS values.
T = Trace of Precipitation, MM = Missing Value Source: NWS Daily Summary

Daily Weather History Graph

Daily Weather History Graph

Search for Another Location

Airport or City:

Trip Planner

Search our weather history database for the weather conditions in past years. The results will help you decide how hot, cold, wet, or windy it might be!

Date:

Astronomy

Oct. 02, 2014 Rise Set
Actual Time 7:24 AM CDT 7:16 PM CDT
Civil Twilight 7:01 AM CDT 7:39 PM CDT
Nautical Twilight 6:34 AM CDT 8:06 PM CDT
Astronomical Twilight 6:06 AM CDT 8:33 PM CDT
Moon 2:56 PM CDT (10/2) 1:11 AM CDT (10/2)
Length of Visible Light 12h 38m
Length of Day
11h 51m
First Quarter, 60% of the Moon is Illuminated
Oct 2
First Quarter
Oct 8
Full
Oct 15
Last Quarter
Oct 23
New
Oct 30
First Quarter

Hourly Weather History & Observations

Time (CDT) Temp. Heat Index Dew Point Humidity Pressure Visibility Wind Dir Wind Speed Gust Speed Precip Events Conditions
12:56 AM 80.1 °F 87.4 °F 80.1 °F 100% 29.81 in 7.0 mi SSE 6.9 mph - N/A   Clear
1:56 AM 80.1 °F 87.4 °F 80.1 °F 100% 29.81 in 7.0 mi SSE 6.9 mph - N/A   Scattered Clouds
2:34 AM 81.0 °F 89.9 °F 80.1 °F 97% 29.81 in 8.0 mi SSE 8.1 mph - N/A   Mostly Cloudy
2:56 AM 80.1 °F 87.4 °F 80.1 °F 100% 29.81 in 9.0 mi SSE 8.1 mph - N/A   Mostly Cloudy
3:56 AM 80.1 °F 87.4 °F 80.1 °F 100% 29.80 in 8.0 mi SSE 8.1 mph - N/A   Mostly Cloudy
4:11 AM 80.1 °F 87.4 °F 80.1 °F 100% 29.80 in 9.0 mi SSE 9.2 mph - N/A   Scattered Clouds
4:56 AM 80.1 °F 87.4 °F 80.1 °F 100% 29.80 in 8.0 mi SSE 9.2 mph - N/A   Clear
5:31 AM 80.1 °F 87.4 °F 80.1 °F 100% 29.81 in 7.0 mi SSE 8.1 mph - N/A   Mostly Cloudy
5:56 AM 80.1 °F 87.4 °F 80.1 °F 100% 29.81 in 8.0 mi SSE 8.1 mph - N/A   Overcast
6:17 AM 80.1 °F 87.4 °F 80.1 °F 100% 29.83 in 8.0 mi South 8.1 mph - N/A   Scattered Clouds
6:56 AM 80.1 °F 87.4 °F 80.1 °F 100% 29.83 in 5.0 mi SSE 6.9 mph - N/A   Scattered Clouds
7:56 AM 80.1 °F 87.4 °F 80.1 °F 100% 29.84 in 5.0 mi SSE 9.2 mph - N/A   Scattered Clouds
8:44 AM 82.0 °F 93.7 °F 81.0 °F 97% 29.86 in 6.0 mi SSE 10.4 mph - N/A   Scattered Clouds
8:56 AM 82.0 °F 93.7 °F 81.0 °F 97% 29.86 in 6.0 mi SSE 10.4 mph - N/A   Mostly Cloudy
9:17 AM 82.9 °F 95.9 °F 81.0 °F 94% 29.87 in 10.0 mi SSE 12.7 mph 20.7 mph N/A   Overcast
9:56 AM 84.9 °F 100.3 °F 81.0 °F 88% 29.87 in 10.0 mi SSE 16.1 mph 21.9 mph N/A   Mostly Cloudy
10:03 AM 86.0 °F 102.5 °F 81.0 °F 85% 29.88 in 10.0 mi SSE 18.4 mph 25.3 mph N/A   Mostly Cloudy
10:56 AM 89.1 °F 104.4 °F 79.0 °F 72% 29.86 in 10.0 mi South 16.1 mph 24.2 mph N/A   Scattered Clouds
11:56 AM 91.9 °F 110.4 °F 80.1 °F 68% 29.86 in 10.0 mi SSE 17.3 mph 24.2 mph N/A   Scattered Clouds
12:56 PM 91.9 °F 108.8 °F 79.0 °F 66% 29.85 in 10.0 mi South 15.0 mph 20.7 mph N/A   Mostly Cloudy
1:56 PM 93.0 °F 112.1 °F 80.1 °F 66% 29.83 in 10.0 mi SSE 13.8 mph - N/A   Mostly Cloudy
2:56 PM 91.9 °F 110.4 °F 80.1 °F 68% 29.80 in 10.0 mi SSE 13.8 mph - N/A   Mostly Cloudy
3:56 PM 91.9 °F 110.4 °F 80.1 °F 68% 29.78 in 10.0 mi SSE 12.7 mph - N/A   Mostly Cloudy
4:56 PM 91.0 °F 114.7 °F 82.9 °F 77% 29.78 in 10.0 mi ESE 13.8 mph - N/A   Mostly Cloudy
5:56 PM 89.1 °F 109.9 °F 82.0 °F 80% 29.78 in 10.0 mi SE 17.3 mph 26.5 mph N/A   Mostly Cloudy
6:56 PM 86.0 °F 102.5 °F 81.0 °F 85% 29.80 in 10.0 mi SE 13.8 mph - N/A   Mostly Cloudy
7:56 PM 84.0 °F 98.1 °F 81.0 °F 90% 29.82 in 10.0 mi SE 10.4 mph - N/A   Mostly Cloudy
8:56 PM 82.9 °F 95.9 °F 81.0 °F 94% 29.85 in 10.0 mi SSE 11.5 mph - N/A   Mostly Cloudy
9:56 PM 82.0 °F 93.7 °F 81.0 °F 97% 29.86 in 10.0 mi SSE 11.5 mph - N/A   Partly Cloudy
10:56 PM 82.0 °F 93.7 °F 81.0 °F 97% 29.88 in 10.0 mi South 8.1 mph - N/A   Partly Cloudy
11:56 PM 81.0 °F 89.9 °F 80.1 °F 97% 29.88 in 10.0 mi South 8.1 mph - N/A   Partly Cloudy